sat.trackr.live / text

‹ back to catalog

STARLINK-2482

NORAD 48139 · 2021-027AZ

PAYLOAD ACTIVE UNKNOWN

§ Identity

Operator
Country
US
Launch date
2021-04-07
Launch site
AFETR
Launch vehicle
Mass (kg)
RCS (m²)

Purposes: comms

External: N2YO · Heavens-Above · Gunter

§ Orbital elements

Epoch: 2026-05-25T01:26:17.691072Z

Period
94.01 min
Inclination
53.1582°
Eccentricity
0.0001763
Mean motion
15.31706638 rev/d
Perigee alt
469.5 km
Apogee alt
471.9 km
Semi-major
6,848.9 km
B*
5.5364e-5
RAAN
157.5320°
Arg perigee
70.8104°
Mean anomaly
289.3088°
Rev number
28,438

§ Raw data

STARLINK-24821 48139U 21027AZ  26145.05992698  .00001353  00000+0  55364-4 0  99912 48139  53.1582 157.5320 0001763  70.8104 289.3088 15.31706638284384

JSON: /api/v1/satellites/48139 · /tle

For live sub-satellite position, see the globe view (requires WebGL).

§ Visibility from observer

Set your observer location to see the next 7 days of passes ≥ 10°. The values pass through the URL so the page stays shareable.

No JS? Fill the form by hand. The geolocation button needs JavaScript.